Theta_e
315 316 316 314 315 315 315 315 315 315 315 317 317 317 317 318 319 318 319 319 319 320 320 319 319 320 321 319 321 326 334 344 351 352 352 351 350 348 347 345 344 344 342 341
316 316 314 314 314 314 314 315 315 315 316 318 318 319 319 319 319 319 319 319 319 319 320 320 319 320 321 322 322 331 335 342 350 352 352 351 350 349 347 345 343 343 342 341
316 316 314 314 314 314 315 316 317 318 317 318 317 320 319 319 320 319 319 319 319 319 320 320 321 320 320 322 327 333 339 344 347 350 350 350 349 348 347 345 343 342 342 341
316 315 314 314 314 314 316 315 316 318 319 320 318 323 319 319 319 320 320 320 320 320 320 320 320 321 320 320 326 330 337 343 346 348 349 349 349 350 348 345 343 343 342 341
316 315 315 315 314 314 316 316 317 319 320 320 320 321 320 319 319 319 319 320 320 321 320 320 321 320 320 320 321 328 334 342 345 348 347 346 346 345 347 346 344 344 343 341
316 315 315 315 314 314 314 316 318 319 321 324 320 320 319 319 319 319 320 320 320 320 320 320 320 319 320 320 320 323 334 339 343 348 346 345 347 346 348 346 345 344 343 341
317 316 315 315 316 314 314 317 326 325 329 326 319 320 319 319 318 318 318 319 320 320 320 321 321 321 320 320 321 321 328 338 342 343 347 346 346 346 347 347 345 344 342 340
319 319 315 314 315 314 315 318 327 326 323 321 319 320 319 318 318 317 318 319 319 319 320 321 321 321 320 320 320 322 324 335 340 341 344 345 345 346 346 346 344 344 343 340
320 318 316 315 314 314 317 322 320 325 322 325 320 318 318 317 317 318 319 319 319 320 321 321 321 321 320 321 321 321 323 330 338 340 342 345 344 344 345 344 342 344 342 341
319 322 316 314 314 316 317 318 322 325 326 325 318 319 317 317 317 318 318 320 321 321 320 320 321 322 322 323 323 321 323 328 334 339 339 342 346 343 342 343 339 336 340 340
317 322 318 316 316 314 316 321 321 320 324 323 322 319 318 318 318 318 319 319 320 320 320 319 319 319 319 321 323 326 322 323 330 335 338 339 344 345 342 343 341 339 341 342
317 319 322 317 314 314 315 318 319 328 321 321 321 323 317 318 317 318 319 318 318 317 318 318 317 317 318 319 320 323 328 322 324 332 336 337 341 344 342 342 343 342 340 338
316 319 322 319 314 317 316 314 315 318 320 323 325 319 315 315 317 317 317 317 318 318 317 317 317 317 317 316 318 320 321 328 324 328 334 337 338 340 339 336 340 336 333 329
318 319 320 321 317 316 318 316 315 317 322 322 322 319 318 317 316 315 315 315 316 317 317 316 317 317 317 316 316 318 320 322 327 327 331 334 338 340 339 336 332 329 327 323
316 319 316 315 314 315 315 314 314 316 317 322 319 318 316 315 315 315 314 315 314 315 316 316 316 316 316 316 315 316 319 320 330 326 331 333 338 338 336 330 327 325 323 320
315 316 315 316 314 314 315 315 316 315 315 316 317 317 314 313 313 313 312 313 313 313 312 313 313 314 314 315 315 315 317 319 326 329 331 334 342 334 330 326 324 322 320 319
317 316 316 316 314 314 319 317 315 315 314 318 318 315 314 314 312 311 311 311 311 311 311 311 312 313 314 314 313 314 315 318 322 332 331 336 339 331 327 324 324 320 319 319
318 317 317 318 315 319 313 314 315 317 314 314 316 315 313 312 309 309 308 308 309 308 309 310 310 311 310 312 312 312 314 316 321 333 331 335 332 329 325 324 322 320 319 315
317 316 318 316 319 315 314 315 316 315 314 313 314 311 309 307 306 305 305 305 306 307 307 307 306 308 309 311 311 312 313 316 326 334 333 332 329 326 325 323 321 319 317 314
314 316 318 318 319 320 318 314 313 313 316 309 308 305 304 303 304 306 306 304 304 305 305 306 307 307 308 309 310 310 313 317 329 334 331 329 327 324 323 321 319 317 314 312
318 316 316 315 318 316 315 315 313 318 316 307 305 303 302 302 303 302 301 302 302 302 303 303 304 309 308 308 310 312 314 322 330 333 330 326 325 323 321 319 316 314 313 310
319 319 318 317 317 316 314 314 310 309 304 303 301 301 301 301 301 302 304 307 310 305 305 305 309 311 310 310 311 314 319 329 332 330 327 324 323 321 318 315 314 310 307 305
318 317 318 316 319 318 317 311 310 305 301 300 299 299 299 302 306 308 312 313 313 310 310 308 310 313 313 313 314 318 328 329 326 325 323 321 319 316 313 312 309 306 303 303
316 315 318 317 316 316 312 312 307 304 300 299 298 301 304 308 311 319 316 315 314 313 313 313 314 312 320 321 323 326 325 323 322 320 319 317 315 313 311 310 308 305 302 301
317 316 317 317 317 309 311 306 305 302 300 300 301 304 306 312 322 320 320 318 317 316 312 311 315 314 317 321 323 321 320 319 318 316 315 314 312 311 310 308 306 304 302 300
317 318 319 319 313 305 306 306 304 301 300 301 303 304 307 311 316 317 317 321 320 317 314 312 311 311 312 312 315 318 316 315 315 314 312 312 310 308 304 302 300 302 300 299
Wind_Speed
7 10 10 14 12 13 17 22 26 26 23 23 27 27 27 24 24 25 23 22 22 23 19 22 22 17 13 15 18 22 24 27 30 30 29 25 27 27 25 24 23 22 22 23
11 10 6 10 12 17 21 23 25 24 20 18 24 30 29 26 25 25 24 24 24 23 21 20 24 21 18 15 19 21 24 25 30 29 31 26 27 27 27 24 23 23 25 23
11 13 10 12 17 20 18 19 20 22 23 22 25 30 20 18 16 20 25 25 25 25 23 22 20 25 22 17 19 22 24 25 27 28 29 23 21 20 21 24 23 24 24 27
9 6 13 17 18 16 17 16 21 23 21 19 19 24 25 21 20 17 18 20 22 22 22 22 22 22 25 21 18 19 21 25 27 29 25 26 23 24 26 27 25 25 28 28
8 14 18 16 11 13 18 17 19 24 24 24 24 13 19 17 18 12 8 9 13 15 18 20 21 26 29 27 23 21 20 24 26 30 28 27 26 28 23 24 25 24 25 22
15 15 15 10 14 12 19 17 19 25 13 9 15 8 10 9 10 8 5 4 4 11 11 14 19 23 26 28 26 23 21 23 25 28 32 31 27 25 24 24 26 29 24 25
20 6 5 9 14 18 16 13 8 5 5 10 10 11 11 17 12 9 10 11 5 4 6 9 14 15 19 23 26 24 22 21 22 25 29 32 31 29 26 30 29 27 25 26
10 17 4 9 22 22 18 9 6 8 12 19 20 9 7 17 13 8 8 10 7 5 3 4 6 9 14 20 21 23 23 21 22 24 27 29 32 30 29 29 27 24 23 23
13 11 23 18 9 11 9 10 10 7 19 13 9 14 14 4 3 2 5 5 5 1 2 4 3 2 6 10 10 16 22 22 21 22 23 25 28 28 26 27 28 24 23 20
12 15 14 7 20 6 10 7 6 4 6 13 11 18 13 5 11 4 2 2 2 2 0 4 4 4 5 5 7 10 13 20 22 22 22 23 25 29 32 32 32 30 24 20
15 5 12 22 17 19 11 5 6 4 6 10 15 8 11 8 14 18 4 4 6 6 5 7 7 7 8 8 8 5 9 15 20 22 22 23 25 30 31 28 28 35 31 36
10 5 16 23 22 15 12 15 13 5 13 14 12 19 21 15 10 13 18 7 8 9 10 9 9 9 11 11 11 8 4 11 18 21 22 23 24 26 28 26 30 31 38 33
3 3 9 13 6 6 11 17 18 18 15 20 13 14 17 18 19 21 21 19 15 14 14 15 14 12 12 14 13 11 8 6 14 19 22 22 21 27 34 24 39 38 40 37
19 9 15 15 23 24 27 26 23 18 7 20 19 28 25 24 25 22 19 20 21 23 22 17 18 18 14 16 15 13 11 10 11 19 23 22 19 24 27 37 26 38 42 44
5 13 19 23 24 25 28 30 26 21 20 10 21 25 27 25 24 21 23 22 20 22 24 23 22 20 18 18 18 16 12 10 10 19 23 23 20 24 31 37 41 39 42 45
4 10 16 24 24 25 27 26 17 13 14 19 22 30 28 20 21 22 20 22 25 24 27 27 26 24 20 21 20 17 14 10 11 18 23 25 25 30 38 39 40 39 35 41
9 6 9 20 20 25 16 3 9 14 15 12 18 32 28 25 21 22 24 26 25 24 25 25 24 20 19 22 21 18 15 13 12 18 25 23 27 30 34 40 40 36 35 34
9 12 10 14 21 15 15 12 3 10 17 25 27 28 24 23 22 26 27 29 31 29 28 27 23 19 26 24 23 19 17 17 16 20 26 28 32 32 34 34 39 32 31 33
11 10 6 5 12 22 14 5 3 10 26 20 15 17 22 23 23 30 23 23 26 24 21 22 31 32 29 24 21 18 18 18 18 23 26 32 35 34 35 35 39 37 34 34
7 10 10 12 13 11 10 12 18 20 19 4 21 23 25 19 16 22 16 14 17 18 17 16 19 29 33 30 26 24 20 19 20 27 31 36 39 40 38 38 40 44 40 40
11 12 11 11 12 14 11 20 18 7 16 28 25 23 25 21 19 27 27 26 21 18 20 28 28 20 27 29 27 22 21 21 20 28 38 40 39 40 40 41 43 47 41 36
7 6 7 8 15 10 22 14 7 11 17 23 26 25 26 26 28 24 23 20 17 16 17 23 15 16 22 25 24 23 21 22 21 35 38 40 40 40 42 46 44 47 47 38
4 5 7 7 10 25 21 12 11 17 19 22 24 26 25 27 26 23 16 9 4 13 15 22 16 14 18 22 23 20 22 26 34 39 39 40 40 42 46 49 46 47 42 39
11 13 9 15 11 20 17 15 17 18 20 23 22 24 24 24 24 10 6 5 8 9 10 12 8 6 8 21 24 19 32 36 40 38 37 36 39 40 40 42 43 49 42 36
14 13 13 16 21 17 13 19 18 21 22 21 24 23 22 19 11 10 9 11 11 11 9 6 7 10 11 18 25 32 37 38 38 38 37 32 36 35 35 34 37 40 37 38
6 10 9 13 9 6 16 20 21 19 21 23 22 23 20 16 10 10 10 10 12 12 16 13 14 18 17 20 20 29 38 42 41 37 37 34 34 33 37 40 38 31 36 37
Wind_Direction
322 294 296 325 311 300 295 290 291 291 297 295 287 284 279 278 271 263 260 256 247 249 248 241 236 238 235 218 214 214 215 218 213 207 197 182 185 192 195 198 195 188 195 198
288 283 346 300 292 293 295 292 289 298 307 306 296 285 285 281 271 264 259 254 246 245 239 239 236 234 228 217 212 211 214 214 215 203 200 196 197 198 199 198 197 190 187 195
301 301 313 292 303 300 294 290 300 305 304 290 284 280 285 287 270 257 252 251 251 242 238 230 230 227 227 211 208 205 208 208 211 207 202 197 188 198 194 196 197 193 192 186
290 311 299 307 302 310 302 315 305 295 300 296 307 291 292 288 281 270 264 251 245 237 229 226 220 223 221 221 209 212 207 205 206 208 196 196 184 191 200 195 191 189 190 192
270 313 315 305 309 318 299 306 302 289 286 287 282 267 290 281 272 289 274 257 243 229 224 214 217 217 218 219 215 212 207 205 205 201 205 202 207 206 198 197 185 191 190 193
272 275 276 294 309 290 302 291 296 280 276 276 279 309 301 316 345 337 346 31 335 223 213 214 214 220 221 222 223 216 210 211 208 202 200 207 206 207 194 194 188 193 186 190
315 264 246 285 302 304 304 310 295 274 223 274 339 293 295 305 318 318 315 298 281 232 237 208 212 221 224 223 225 224 216 213 209 207 208 205 212 215 207 197 190 186 183 190
313 314 353 317 304 296 297 298 271 296 308 305 313 280 309 331 308 279 300 269 246 228 11 297 257 231 227 222 226 228 222 214 209 208 209 207 203 207 204 196 183 186 183 188
317 288 317 303 322 307 308 269 293 284 268 265 251 252 241 198 76 93 50 23 207 123 27 26 28 345 268 269 249 234 226 216 211 210 211 211 194 196 196 187 166 166 170 177
298 301 304 287 310 279 238 275 277 221 280 298 294 307 293 17 348 42 84 37 165 187 28 47 28 26 342 312 248 234 237 219 214 210 215 216 207 199 204 204 185 173 185 175
312 248 274 301 291 300 279 249 236 274 273 287 299 285 19 341 311 305 317 281 291 295 310 329 341 350 345 342 325 281 233 221 215 212 212 222 214 197 206 191 186 171 184 175
322 276 281 298 289 268 285 287 286 262 278 289 290 283 279 292 313 322 303 275 264 277 283 294 307 321 318 325 327 329 319 237 217 211 209 214 218 208 202 192 183 170 171 161
301 265 298 299 293 183 285 302 290 282 280 272 265 270 298 303 300 291 289 281 260 258 266 283 290 296 301 305 304 308 317 283 226 211 211 216 213 204 204 208 193 158 147 139
289 260 263 276 289 304 297 293 282 271 265 287 282 290 301 295 290 295 296 292 287 287 285 277 280 284 284 289 291 288 295 304 249 216 212 213 205 193 160 157 144 143 139 140
266 275 293 288 288 288 285 287 295 289 276 273 287 290 293 305 309 305 301 297 289 280 270 269 272 275 277 273 277 282 274 284 268 227 209 205 197 172 141 143 143 143 144 143
251 285 296 287 286 290 304 303 294 291 286 284 286 289 290 309 299 295 288 280 273 269 273 270 266 265 266 265 263 270 270 267 273 228 214 195 172 145 144 142 141 138 147 141
267 261 288 289 302 308 291 356 300 285 290 279 280 290 301 294 292 295 292 284 277 277 273 268 265 261 259 252 256 259 263 260 261 225 212 181 166 145 144 143 144 144 145 147
249 262 273 287 305 296 326 3 316 250 268 284 291 287 290 293 297 284 280 278 275 272 268 261 257 249 251 245 252 255 254 251 245 227 203 165 155 150 146 142 133 141 143 140
237 282 284 286 301 291 292 22 315 283 288 286 290 292 287 292 292 280 262 258 261 264 259 249 249 250 244 236 238 240 241 240 228 215 171 159 149 148 148 141 136 137 131 125
256 260 270 296 288 300 327 321 322 323 291 88 318 304 301 302 291 285 300 278 259 254 257 274 245 232 231 232 234 238 232 234 220 200 157 153 153 151 148 143 140 134 134 131
300 302 292 291 285 289 321 344 336 307 320 310 307 303 298 293 276 283 287 281 266 244 237 242 256 224 217 221 221 218 219 224 223 178 151 147 154 149 145 139 138 128 127 130
290 293 301 301 303 289 339 347 335 305 302 301 305 303 300 295 295 294 292 286 266 227 212 212 209 203 199 201 201 206 211 201 188 151 143 143 148 142 138 137 135 129 123 130
285 257 286 287 282 300 317 321 320 320 302 304 305 305 303 298 299 297 296 331 108 160 184 196 210 209 194 192 193 206 193 150 141 137 137 138 139 138 139 137 134 125 132 134
297 303 270 291 272 312 323 327 329 313 309 308 308 308 308 304 304 339 24 50 98 126 153 173 161 205 186 198 196 169 140 140 134 129 130 138 136 137 140 138 137 131 139 137
283 289 279 284 298 325 309 326 317 318 315 317 321 317 314 312 24 14 49 84 88 89 100 131 100 80 76 96 122 130 131 130 126 126 126 131 130 132 132 129 136 136 136 142
284 294 304 302 334 287 306 315 323 324 321 328 327 329 334 357 14 35 33 60 102 111 105 95 96 96 91 92 102 129 131 127 124 122 124 128 126 125 118 113 103 115 127 132